This is the latest recevied weather packets stored in our database for station/object N0QWM. If no packets are shown the sender has not sent any weather packets the latest 10 day(s).
| Time | Temp. | Humidity | Pressure | Rain* | Wind** | Luminosity | Snow |
|---|---|---|---|---|---|---|---|
| 1788618908 | 32.78° C | 71% | 1020 hPa | 0 mm | - | 476 W/m² | - |
| 1788618603 | 31.67° C | 72% | 1020 hPa | 0 mm | - | 481 W/m² | - |
| 1788618301 | 31.11° C | 75% | 1019.9 hPa | 0 mm | - | 480 W/m² | - |
| 1788617997 | 31.11° C | 74% | 1019.8 hPa | 0 mm | - | 473 W/m² | - |
| 1788617692 | 31.11° C | 74% | 1019.9 hPa | 0 mm | - | 444 W/m² | - |
| 1788617388 | 31.11° C | 74% | 1019.9 hPa | 0 mm | - | 407 W/m² | - |
| 1788617083 | 30.56° C | 75% | 1020.2 hPa | 0 mm | - | 354 W/m² | - |
| 1788616782 | 30.56° C | 76% | 1019.9 hPa | 0 mm | - | 331 W/m² | - |
| 1788616478 | 30° C | 77% | 1020.1 hPa | 0 mm | - | 323 W/m² | - |
| 1788616173 | 28.89° C | 80% | 1020.1 hPa | 0 mm | - | 298 W/m² | - |
| 1788615872 | 28.33° C | 82% | 1020 hPa | 0 mm | - | 273 W/m² | - |
| 1788615571 | 28.33° C | 83% | 1019.7 hPa | 0 mm | - | 245 W/m² | - |
| 1788615266 | 27.78° C | 85% | 1019.9 hPa | 0 mm | - | 256 W/m² | - |
| 1788614966 | 27.22° C | 87% | 1020 hPa | 0 mm | - | 69 W/m² | - |
| 1788614661 | 26.67° C | 88% | 1020.1 hPa | 0 mm | - | 68 W/m² | - |
| 1788614356 | 26.67° C | 88% | 1020.1 hPa | 0 mm | - | 78 W/m² | - |
| 1788614078 | 26.67° C | 89% | 1020.1 hPa | 0 mm | - | 62 W/m² | - |
| 1788613747 | 26.11° C | 90% | 1020 hPa | 0 mm | - | 89 W/m² | - |
| 1788613446 | 25.56° C | 92% | 1020.4 hPa | 0 mm | - | 74 W/m² | - |
| 1788613141 | 25° C | 93% | 1020.1 hPa | 0 mm | - | 66 W/m² | - |
| 1788612835 | 25° C | 94% | 1020.4 hPa | 0 mm | - | 58 W/m² | - |
| 1788612531 | 24.44° C | 95% | 1020.3 hPa | 0 mm | - | 57 W/m² | - |
| 1788612228 | 23.89° C | 97% | 1020.4 hPa | 0 mm | - | 62 W/m² | - |
| 1788611922 | 23.89° C | 97% | 1020.3 hPa | 0 mm | - | 40 W/m² | - |
| 1788611619 | 23.89° C | 98% | 1020.4 hPa | 0 mm | - | 35 W/m² | - |
* Rain latest hour (hover to see other rain measurements)
** Current wind speed in m/s (hover to see current wind gust speed)